Location: Rumah Long Bangan
(2.8362°N, 113.7519°E)
Time: 18:04:01
(UTC+00:00)

Cosmos 1953 - Pass Details

Date: 24 October 2021
Orbit: 537 x 556 km, 82.5° (Epoch: 07 December)

Event Time Altitude Azimuth Distance (km) Brightness Sun altitude
Rises 21:15:33 0° 360° (N) 2,691 5.7 -13.7°
Reaches altitude 10° 21:17:43 10° 2° (N) 1,799 4.8 -13.2°
Maximum altitude 21:21:39 70° 87° (E) 577 2.6 -12.2°
Drops below altitude 10° 21:25:34 10° 170° (S) 1,796 5.2 -11.2°
Sets 21:27:43 0° 172° (S) 2,687 6.1 -10.7°
